Hlavní strana
METAR-TAF:

METAR-TAF

Letiště :

Brookings, Jižní Dakota, Spojené státy americké

zeměpisná šířka: 44-18N, zeměpisná délka: 096-49W, výška: 502 m

Aktuální stav počasí

Zpráva byla vytvořena před 1 hodinou a 2 minutami, v 03:56 UTC
Západní vítr 11 kt
Teplota 9°C
Vlhkost vzduchu 81%
Tlak 1019 hPa
Viditelnost: 16.1 km
Jasno

METAR: KBKX 260356Z AUTO 28011KT 10SM CLR 09/06 A3008 RMK AO2 SLP207 T00890061

Čas: 23:58 (04:58 UTC)


TAF: chybějící

Stav a předpovědi počasí z více než 4 000 letišť (zprávy METAR a TAF).

Červené a žluté tečky na mapě představují dostupné meteorologické stanice.

Když kurzor umístíte na tečku, zobrazí se název stanice.

Pak kliknutím zobrazíte stav a předpověď počasí.

Chcete-li změnit mapu, kliknutím na zelené tlačítko se znaménkem +mapu přiblížíte, kliknutím na zelené tlačítko se znaménkem – mapu oddálíte a kliknutím na zelené šipky přejdete na sousední mapy.


METAR-TAF: